Simultaneous Nadir Overpasses (SNOs) Predictions

Prediction of SNOs between NOAA-20 and METOP-C Satellite Orbit:

Table of predicted SNOs for the next 14.0 days since TLE Epoch: 2/1/2019
Index Date (NOAA-20) Time (NOAA-20) Lat,Lon (NOAA-20) SZA (NOAA-20 ) Date (METOP-C) Time (METOP-C) Lat,Lon (METOP-C) SZA (METOP-C ) Distance(km) Time Diff (sec)
1 02/10/2019 07:05:25 -73.53,-116.26 91.71 02/10/2019 07:06:31 -73.46,-113.20 91.98 96.92 66
2 02/10/2019 07:56:06 73.30, 51.59 88.02 02/10/2019 07:57:14 73.25, 53.67 87.84 66.89 68
3 02/10/2019 08:46:49 -73.24,-140.96 92.07 02/10/2019 08:47:58 -73.19,-139.14 92.23 58.73 69
4 02/10/2019 09:37:30 73.00, 26.87 87.66 02/10/2019 09:38:42 72.93, 27.64 87.53 26.06 72
5 02/10/2019 10:28:13 -72.94,-165.69 92.42 02/10/2019 10:29:26 -72.87,-165.17 92.54 18.60 73
6 02/10/2019 11:18:55 72.75, 2.02 87.36 02/10/2019 11:20:07 72.76, 1.94 87.36 3.19 72
7 02/10/2019 12:09:40 -72.79, 169.25 92.61 02/10/2019 12:10:49 -72.80, 169.35 92.62 3.42 69
8 02/10/2019 13:00:25 72.75, -23.36 87.34 02/10/2019 13:01:29 72.74, -23.44 87.32 2.72 64
9 02/10/2019 13:51:10 -72.79, 143.87 92.63 02/10/2019 13:52:11 -72.78, 143.97 92.66 3.44 61
10 02/10/2019 14:41:55 72.75, -48.74 87.32 02/10/2019 14:42:50 72.78, -48.71 87.33 2.80 55
11 02/10/2019 15:32:39 -72.75, 118.59 92.70 02/10/2019 15:33:33 -72.77, 118.59 92.70 2.24 54
12 02/10/2019 16:23:25 72.76, -74.12 87.30 02/10/2019 16:24:12 72.76, -74.09 87.29 1.10 47
13 02/10/2019 17:14:09 -72.75, 93.21 92.72 02/10/2019 17:14:55 -72.75, 93.21 92.73 0.09 46
14 02/10/2019 18:04:55 72.76, -99.50 87.28 02/10/2019 18:05:34 72.74, -99.46 87.25 2.33 39
15 02/10/2019 18:55:39 -72.75, 67.83 92.74 02/10/2019 18:56:17 -72.73, 67.84 92.77 2.41 38
16 02/10/2019 19:46:24 72.71,-124.77 87.21 02/10/2019 19:46:56 72.72,-124.84 87.21 2.56 32
17 02/10/2019 20:37:08 -72.70, 42.56 92.82 02/10/2019 20:37:39 -72.71, 42.46 92.81 3.37 31
18 02/10/2019 21:27:54 72.71,-150.15 87.19 02/10/2019 21:28:18 72.70,-150.22 87.18 2.34 24
19 02/10/2019 22:18:38 -72.71, 17.18 92.84 02/10/2019 22:19:01 -72.69, 17.08 92.85 3.46 23
20 02/10/2019 23:09:24 72.72,-175.53 87.17 02/10/2019 23:09:39 72.74,-175.49 87.18 2.73 15
21 02/11/2019 00:00:08 -72.71, -8.20 92.86 02/11/2019 00:00:22 -72.73, -8.19 92.84 1.92 14
22 02/11/2019 00:50:54 72.72, 159.08 87.15 02/11/2019 00:51:01 72.72, 159.13 87.14 1.60 7
23 02/11/2019 01:41:38 -72.71, -33.58 92.88 02/11/2019 01:41:44 -72.71, -33.57 92.88 0.69 6
24 02/11/2019 02:32:24 72.72, 133.70 87.13 02/11/2019 02:32:23 72.70, 133.76 87.10 2.92 1
25 02/11/2019 03:23:08 -72.72, -58.96 92.90 02/11/2019 03:23:06 -72.69, -58.95 92.92 2.85 2
26 02/11/2019 04:13:53 72.67, 108.43 87.05 02/11/2019 04:13:45 72.68, 108.38 87.07 1.90 8
27 02/11/2019 05:04:37 -72.67, -84.24 92.97 02/11/2019 05:04:28 -72.67, -84.32 92.96 2.77 9
28 02/11/2019 05:55:23 72.68, 83.05 87.03 02/11/2019 05:55:07 72.67, 83.00 87.03 2.06 16
29 02/11/2019 06:46:07 -72.67,-109.62 92.99 02/11/2019 06:45:50 -72.65,-109.70 93.00 3.17 17
30 02/11/2019 07:36:53 72.68, 57.67 87.01 02/11/2019 07:36:28 72.70, 57.73 87.03 2.83 25
31 02/11/2019 08:27:37 -72.67,-135.00 93.01 02/11/2019 08:27:11 -72.69,-134.97 92.99 1.78 26
32 02/11/2019 09:18:23 72.68, 32.29 86.99 02/11/2019 09:17:50 72.68, 32.35 86.99 2.20 33
33 02/11/2019 10:09:07 -72.68,-160.38 93.03 02/11/2019 10:08:33 -72.67,-160.35 93.03 1.35 34
34 02/11/2019 10:59:52 72.64, 7.01 86.92 02/11/2019 10:59:12 72.66, 6.98 86.96 3.16 40
35 02/11/2019 11:50:36 -72.63, 174.34 93.11 02/11/2019 11:49:55 -72.65, 174.27 93.07 3.35 41
36 02/11/2019 12:41:22 72.64, -18.37 86.90 02/11/2019 12:40:34 72.64, -18.40 86.92 1.22 48
37 02/11/2019 13:32:06 -72.63, 148.96 93.13 02/11/2019 13:31:17 -72.63, 148.90 93.11 2.16 49
38 02/11/2019 14:22:52 72.64, -43.75 86.88 02/11/2019 14:21:56 72.63, -43.78 86.88 1.97 56
39 02/11/2019 15:13:36 -72.63, 123.58 93.15 02/11/2019 15:12:39 -72.61, 123.52 93.15 2.99 57
40 02/11/2019 16:04:22 72.64, -69.13 86.86 02/11/2019 16:03:17 72.66, -69.05 86.88 3.08 65
41 02/11/2019 16:55:06 -72.64, 98.20 93.17 02/11/2019 16:54:00 -72.65, 98.25 93.14 1.89 66
42 02/11/2019 17:45:52 72.65, -94.51 86.84 02/11/2019 17:44:39 72.64, -94.43 86.84 2.85 73
43 02/11/2019 18:36:36 -72.64, 72.82 93.19 02/11/2019 18:35:22 -72.63, 72.87 93.18 2.03 74
44 02/11/2019 19:27:17 72.40,-119.38 86.54 02/11/2019 19:26:05 72.42,-120.22 86.63 28.34 72
45 02/11/2019 20:18:01 -72.39, 47.95 93.49 02/11/2019 20:16:48 -72.41, 47.08 93.40 29.31 73
46 02/11/2019 21:08:41 72.09,-144.16 86.18 02/11/2019 21:07:32 72.14,-146.09 86.37 66.40 69
47 02/11/2019 21:59:25 -72.09, 23.17 93.84 02/11/2019 21:58:16 -72.08, 21.11 93.70 70.47 69




NCC Satellite Simultaneous Nadir Overpasses (SNOs) Prediction Service
